WMT420 LBSF-LRTR

Flight info

Callsign WMT420
Flight time N/A
Altitude 38000
Route OGOTA N133 RESLA DCT SODGO DCT NEKUL
Aircraft A321/M-SDE3FGHIRWY/LB1

Departure

Time N/A
Airport Sofia Airport (LBSF)

Arrival

Time 2026-04-29 15:55
Airport Timișoara Traian Vuia International Airport (LRTR)
Time Latitude Longitude Altitude Speed Heading
2026-04-29 15:14 43.05766 23.43297 19186 ft 348 kts 337°
2026-04-29 15:14 43.08082 23.42269 19974 ft 351 kts 337°
2026-04-29 15:14 43.10419 23.41238 20752 ft 355 kts 337°
2026-04-29 15:15 43.12785 23.40195 21543 ft 358 kts 337°
2026-04-29 15:15 43.15165 23.39142 22327 ft 361 kts 337°
2026-04-29 15:15 43.17570 23.38075 23134 ft 365 kts 337°
2026-04-29 15:15 43.19993 23.36997 23880 ft 368 kts 336°
2026-04-29 15:16 43.22438 23.35906 24528 ft 371 kts 336°
2026-04-29 15:16 43.24900 23.34806 25180 ft 373 kts 336°
2026-04-29 15:16 43.27375 23.33702 25819 ft 376 kts 336°
2026-04-29 15:16 43.29871 23.32591 26447 ft 378 kts 336°
2026-04-29 15:17 43.32383 23.31480 27078 ft 380 kts 337°
2026-04-29 15:17 43.34980 23.30634 27711 ft 386 kts 341°
2026-04-29 15:17 43.37615 23.29860 28321 ft 388 kts 341°
2026-04-29 15:17 43.40261 23.29083 28911 ft 390 kts 341°
2026-04-29 15:18 43.42932 23.28296 29506 ft 393 kts 341°
2026-04-29 15:18 43.45612 23.27503 30085 ft 396 kts 341°
2026-04-29 15:18 43.48311 23.26701 30571 ft 398 kts 341°
2026-04-29 15:18 43.51022 23.25896 31045 ft 401 kts 341°
2026-04-29 15:19 43.53760 23.25087 31493 ft 403 kts 341°
2026-04-29 15:19 43.56514 23.24275 32060 ft 403 kts 340°
2026-04-29 15:19 43.59253 23.23470 32739 ft 400 kts 340°
2026-04-29 15:19 43.61967 23.22667 33394 ft 398 kts 340°
2026-04-29 15:20 43.64671 23.21863 34042 ft 396 kts 340°
2026-04-29 15:20 43.67355 23.21065 34576 ft 394 kts 340°
2026-04-29 15:20 43.70003 23.20276 35060 ft 394 kts 340°
2026-04-29 15:20 43.72684 23.19475 35534 ft 394 kts 340°
2026-04-29 15:21 43.75366 23.18673 35996 ft 394 kts 340°
2026-04-29 15:21 43.78036 23.17871 36471 ft 394 kts 340°
2026-04-29 15:21 43.80719 23.17062 36898 ft 394 kts 340°
2026-04-29 15:21 43.83399 23.16257 37322 ft 394 kts 341°
2026-04-29 15:22 43.86083 23.15457 37726 ft 394 kts 341°
2026-04-29 15:22 43.88763 23.14657 38065 ft 395 kts 341°
2026-04-29 15:22 43.91452 23.13853 38128 ft 393 kts 341°
2026-04-29 15:23 43.96772 23.12258 38128 ft 391 kts 341°
2026-04-29 15:23 44.02097 23.10652 38128 ft 390 kts 341°
2026-04-29 15:24 44.07407 23.09042 38127 ft 391 kts 341°
2026-04-29 15:24 44.12723 23.07427 38126 ft 391 kts 341°
2026-04-29 15:25 44.18002 23.05829 38132 ft 391 kts 341°
2026-04-29 15:25 44.23331 23.04214 38153 ft 391 kts 341°
2026-04-29 15:26 44.28659 23.02594 38153 ft 392 kts 341°
2026-04-29 15:26 44.33986 23.00974 37837 ft 391 kts 340°
2026-04-29 15:26 44.36623 23.00174 37468 ft 386 kts 340°
2026-04-29 15:27 44.39250 22.99377 37094 ft 382 kts 340°
2026-04-29 15:27 44.41829 22.98593 36717 ft 377 kts 340°
2026-04-29 15:27 44.44380 22.97815 36340 ft 373 kts 340°
2026-04-29 15:27 44.46903 22.97044 35945 ft 369 kts 339°
2026-04-29 15:28 44.49406 22.96275 35562 ft 372 kts 339°
2026-04-29 15:28 44.51098 22.95749 35292 ft 379 kts 339°
2026-04-29 15:28 44.54544 22.94678 34729 ft 380 kts 339°
2026-04-29 15:28 44.57118 22.93885 34307 ft 377 kts 339°
2026-04-29 15:29 44.59678 22.93103 33831 ft 374 kts 339°
2026-04-29 15:29 44.64719 22.91567 32968 ft 367 kts 339°
2026-04-29 15:30 44.69674 22.90039 32134 ft 362 kts 339°
2026-04-29 15:30 44.72126 22.89282 31717 ft 359 kts 339°
2026-04-29 15:30 44.74533 22.88537 31308 ft 357 kts 339°
2026-04-29 15:30 44.76946 22.87789 30907 ft 355 kts 339°
2026-04-29 15:31 44.79350 22.87044 30505 ft 353 kts 339°
2026-04-29 15:31 44.81738 22.86305 30101 ft 350 kts 339°
2026-04-29 15:31 44.84111 22.85571 29730 ft 348 kts 338°
2026-04-29 15:31 44.86469 22.84841 29301 ft 345 kts 338°
2026-04-29 15:32 44.88786 22.84049 28876 ft 340 kts 336°
2026-04-29 15:32 44.91058 22.83168 28476 ft 337 kts 335°
2026-04-29 15:32 44.93299 22.82245 28087 ft 334 kts 334°
2026-04-29 15:32 44.95526 22.81317 27701 ft 333 kts 334°
2026-04-29 15:33 44.97745 22.80400 27317 ft 332 kts 335°
2026-04-29 15:33 44.99957 22.79500 26921 ft 330 kts 335°
2026-04-29 15:33 45.02160 22.78612 26535 ft 329 kts 335°
2026-04-29 15:33 45.04355 22.77734 26142 ft 327 kts 335°
2026-04-29 15:34 45.06544 22.76859 25775 ft 326 kts 335°
2026-04-29 15:34 45.08725 22.75989 25355 ft 325 kts 335°
2026-04-29 15:34 45.10899 22.75121 24936 ft 324 kts 335°
2026-04-29 15:34 45.13064 22.74257 24532 ft 322 kts 334°
2026-04-29 15:35 45.15217 22.73396 24114 ft 321 kts 334°
2026-04-29 15:35 45.17362 22.72536 23691 ft 320 kts 334°
2026-04-29 15:35 45.19497 22.71676 23219 ft 318 kts 335°
2026-04-29 15:35 45.21624 22.70824 22801 ft 317 kts 335°
2026-04-29 15:36 45.23742 22.69975 22375 ft 316 kts 335°
2026-04-29 15:36 45.25851 22.69129 21957 ft 315 kts 335°
2026-04-29 15:36 45.27961 22.68282 21518 ft 313 kts 335°
2026-04-29 15:36 45.30055 22.67439 21134 ft 313 kts 335°
2026-04-29 15:37 45.32144 22.66592 20697 ft 311 kts 336°
2026-04-29 15:37 45.34222 22.65748 20276 ft 310 kts 336°
2026-04-29 15:37 45.36294 22.64908 19856 ft 309 kts 336°
2026-04-29 15:37 45.38358 22.64076 19443 ft 308 kts 336°
2026-04-29 15:38 45.40411 22.63249 19022 ft 307 kts 336°
2026-04-29 15:38 45.42438 22.62427 18611 ft 306 kts 337°
2026-04-29 15:38 45.44509 22.61587 18171 ft 305 kts 337°
2026-04-29 15:38 45.46518 22.60774 17741 ft 303 kts 338°
2026-04-29 15:39 45.48530 22.59912 17329 ft 298 kts 333°
2026-04-29 15:39 45.50327 22.58488 16921 ft 288 kts 318°
2026-04-29 15:39 45.51708 22.56525 16539 ft 281 kts 304°
2026-04-29 15:39 45.52674 22.54132 16147 ft 278 kts 291°
2026-04-29 15:40 45.53278 22.51509 15774 ft 278 kts 287°
2026-04-29 15:40 45.53862 22.48864 15398 ft 279 kts 288°
2026-04-29 15:40 45.54450 22.46231 15023 ft 278 kts 288°
2026-04-29 15:40 45.55036 22.43611 14643 ft 277 kts 288°
2026-04-29 15:41 45.55623 22.40983 14269 ft 277 kts 288°
2026-04-29 15:41 45.56206 22.38366 13890 ft 277 kts 289°
2026-04-29 15:41 45.56785 22.35751 13480 ft 276 kts 288°
2026-04-29 15:41 45.57363 22.33134 13110 ft 276 kts 288°
2026-04-29 15:42 45.57934 22.30526 12738 ft 276 kts 288°
2026-04-29 15:42 45.58507 22.27918 12359 ft 275 kts 288°
2026-04-29 15:42 45.59079 22.25318 11987 ft 273 kts 288°
2026-04-29 15:42 45.59646 22.22730 11620 ft 273 kts 288°
2026-04-29 15:43 45.60216 22.20144 11253 ft 273 kts 288°
2026-04-29 15:43 45.60783 22.17565 10882 ft 272 kts 288°
2026-04-29 15:43 45.61348 22.14992 10512 ft 271 kts 288°
2026-04-29 15:43 45.61909 22.12429 10149 ft 270 kts 288°
2026-04-29 15:44 45.62466 22.09866 9751 ft 269 kts 288°
2026-04-29 15:44 45.63026 22.07306 9270 ft 271 kts 288°
2026-04-29 15:44 45.63587 22.04742 8876 ft 270 kts 288°
2026-04-29 15:44 45.64139 22.02207 8512 ft 268 kts 288°
2026-04-29 15:45 45.64687 21.99681 8142 ft 265 kts 288°
2026-04-29 15:45 45.65231 21.97168 7770 ft 263 kts 288°
2026-04-29 15:45 45.65773 21.94671 7410 ft 263 kts 288°
2026-04-29 15:45 45.66313 21.92180 7046 ft 262 kts 288°
2026-04-29 15:46 45.66847 21.89704 6680 ft 260 kts 288°
2026-04-29 15:46 45.67378 21.87245 6311 ft 259 kts 289°
2026-04-29 15:46 45.67965 21.84810 5945 ft 258 kts 291°
2026-04-29 15:46 45.68586 21.82407 5593 ft 258 kts 292°
2026-04-29 15:47 45.69229 21.79999 5246 ft 258 kts 292°
2026-04-29 15:47 45.69855 21.77594 4894 ft 258 kts 292°
2026-04-29 15:47 45.70471 21.75188 4526 ft 257 kts 292°
2026-04-29 15:47 45.71083 21.72796 4230 ft 254 kts 292°
2026-04-29 15:48 45.71673 21.70486 4144 ft 241 kts 292°
2026-04-29 15:48 45.72234 21.68288 4033 ft 230 kts 292°
2026-04-29 15:48 45.72768 21.66197 3990 ft 215 kts 293°
2026-04-29 15:48 45.73263 21.64255 3997 ft 201 kts 293°
2026-04-29 15:49 45.73740 21.62387 4000 ft 199 kts 293°
2026-04-29 15:49 45.74215 21.60525 3923 ft 197 kts 294°
2026-04-29 15:49 45.74670 21.58736 3702 ft 190 kts 294°
2026-04-29 15:49 45.75115 21.56986 3484 ft 183 kts 294°
2026-04-29 15:50 45.75539 21.55316 3239 ft 173 kts 294°
2026-04-29 15:50 45.75939 21.53741 3002 ft 164 kts 294°
2026-04-29 15:50 45.76317 21.52250 2784 ft 154 kts 294°
2026-04-29 15:50 45.76660 21.50892 2585 ft 138 kts 294°
2026-04-29 15:51 45.76980 21.49633 2409 ft 133 kts 294°
2026-04-29 15:51 45.77295 21.48393 2223 ft 132 kts 294°
2026-04-29 15:51 45.77609 21.47155 2056 ft 132 kts 294°
2026-04-29 15:51 45.77921 21.45923 1878 ft 131 kts 294°
2026-04-29 15:52 45.78235 21.44694 1720 ft 131 kts 295°
2026-04-29 15:52 45.78552 21.43480 1553 ft 128 kts 295°
2026-04-29 15:52 45.78855 21.42283 1344 ft 128 kts 294°
2026-04-29 15:52 45.79154 21.41072 1173 ft 130 kts 295°
2026-04-29 15:53 45.79358 21.40269 1051 ft 130 kts 294°
2026-04-29 15:53 45.79663 21.39047 873 ft 130 kts 294°
2026-04-29 15:53 45.79964 21.37837 728 ft 127 kts 293°
2026-04-29 15:53 45.80261 21.36652 507 ft 127 kts 295°
2026-04-29 15:54 45.80562 21.35461 358 ft 124 kts 295°
2026-04-29 15:54 45.80821 21.34440 338 ft 89 kts 289°
2026-04-29 15:54 45.80987 21.33778 346 ft 62 kts 289°
2026-04-29 15:54 45.81131 21.33225 349 ft 56 kts 291°
2026-04-29 15:55 45.81227 21.32836 343 ft 29 kts 289°
2026-04-29 15:55 45.81295 21.32560 346 ft 30 kts 290°
2026-04-29 15:55 45.81356 21.32311 345 ft 21 kts 288°
2026-04-29 15:55 45.81364 21.32156 345 ft 13 kts 230°
2026-04-29 15:56 45.81268 21.32100 342 ft 14 kts 199°
2026-04-29 15:56 45.81206 21.32068 350 ft 11 kts 199°
2026-04-29 15:56 45.81156 21.32049 352 ft 7 kts 174°
2026-04-29 15:56 45.81123 21.32117 351 ft 10 kts 111°
2026-04-29 15:57 45.81115 21.32145 346 ft 4 kts 111°
2026-04-29 15:57 45.81096 21.32152 347 ft 4 kts 175°
2026-04-29 15:57 45.81075 21.32144 342 ft 3 kts 200°
2026-04-29 15:57 45.81058 21.32135 342 ft 0 kts 200°
2026-04-29 15:58 45.81057 21.32135 342 ft 0 kts 200°